Regional Weather Roundup
Issued by NWS

Home | Current Version | Previous Version | Graphics & Text | Print | Product List | Glossary On
Versions: 1 2 3 4 5 6 7 8 9 10 11 12 13 14 15 16 17 18 19 20 21 22 23 24 25 26 27 28 29 30 31 32 33 34 35 36 37 38 39 40 41 42 43 44 45 46 47 48 49 50
000
ASUS43 KLOT 252310
RWRIL

ILLINOIS REGIONAL WEATHER ROUNDUP
NATIONAL WEATHER SERVICE CHICAGO/ROMEOVILLE IL
600 PM CDT FRI JUL 25 2014

NOTE: "FAIR" INDICATES FEW OR NO CLOUDS BELOW 12,000 FEET WITH NO
SIGNIFICANT WEATHER AND/OR OBSTRUCTIONS TO VISIBILITY.

* THESE STATIONS ARE NOT UNDER NWS QUALITY CONTROL. THEY ALSO MAY NOT
  REPORT WEATHER SUCH AS PRECIPITATION OR FOG.

ILZ001-002-007-009-015-016-024-260000-
NORTHWEST ILLINOIS

CITY           SKY/WX    TMP DP  RH WIND       PRES   REMARKS
MOLINE         CLOUDY    73  64  73 SE5       29.88S
STERLING*      CLOUDY    68  61  77 SE10      29.92F
SAVANNA*       CLOUDY    70  61  73 SE10      29.90F
$$

ILZ003-004-008-010-011-017-018-260000-
NORTH CENTRAL ILLINOIS

CITY           SKY/WX    TMP DP  RH WIND       PRES   REMARKS
ROCKFORD       CLOUDY    71  60  68 S10       29.94S
FREEPORT*      CLOUDY    68  63  82 S10       29.94S
ROCHELLE*      CLOUDY    69  60  73 S10       29.94S
DE KALB*       CLOUDY    68  60  74 S10       29.96S
PERU*          CLOUDY    69  60  73 SE9       29.94F
$$

ILZ005-006-012>014-019>023-260000-
NORTHEAST ILLINOIS

CITY           SKY/WX    TMP DP  RH WIND       PRES   REMARKS
CHICAGO-OHARE  PTSUNNY   73  57  57 SW8       29.93F
CHICAGO-MIDWAY PTSUNNY   74  60  61 SW13      29.94F
AURORA         MOSUNNY   71  59  65 S9        29.95S
LANSING*       CLOUDY    72  59  63 SW6       29.96S
JOLIET*        SUNNY     73  58  59 SW6       29.95F
WAUKEGAN       MOSUNNY   74  58  57 S9        29.92F
DUPAGE AIRPORT MOSUNNY   73  60  63 S8        29.93F
KANKAKEE*      SUNNY     74  60  61 S7        29.96S
WHEELING       CLOUDY    75  58  55 S10       29.94F
MORRIS*        SUNNY     74  61  63 S5        29.95S
ROMEOVILLE*    MOSUNNY   73  58  59 S6        29.95F
NORTHERLY ISL    N/A     72  58  61 S9          N/A
$$

LMZ740>746-260000-
SOUTHERN LAKE MICHIGAN

STATION/POSITION SKY/WX   TEMP    WIND        PRES    VSBY  WAVE
                          AIR SEA DIR/SP/G                  HT/PER
                          (F)     (DEG/KT/KT) (MB)    (MI)  (FT/S)
SOUTHERN BUOY              65 62  170/  8/ 10 1013.6F         1/ 4
WAUKEGAN HARBOR            73     240/ 10/ 13   N/A
HARRISON CRIB              71     190/ 11/ 13   N/A
BURNHAM HARBOR             72     200/  8/ 12   N/A
CALUMET HARBOR             71     200/  6/ 10 1012.9F
BURNS HARBOR               72     190/ 10/ 13 1014.9S
MICHIGAN CITY              71     180/  9/ 12   N/A
MICHIGAN CITY 6N           70 68  210/  6/  8   N/A           1/ 3
ST. JOSEPH                 68 66  180/  4/  6   N/A           1/ 3
$$

ILZ025>027-034>036-040-047-049-050-058-095>099-260000-
WEST-CENTRAL ILLINOIS

CITY           SKY/WX    TMP DP  RH WIND       PRES   REMARKS
QUINCY         MOSUNNY   77  62  59 S10       29.85R
GALESBURG*     CLOUDY    74  64  70 SE5       29.89S
MACOMB*        CLOUDY    75  63  66 S9        29.90S
JACKSONVILLE*  SUNNY     78  61  55 S8        29.88R
PITTSFIELD*    SUNNY     77  62  58 S8G17     29.87S
$$

ILZ028>032-037-038-041>044-048-051>054-059>061-260000-
CENTRAL ILLINOIS

CITY           SKY/WX    TMP DP  RH WIND       PRES   REMARKS
PONTIAC        CLOUDY    72  63  73 S3        29.95R
DECATUR        SUNNY     73  61  65 S10       29.92R
PEORIA         PTSUNNY   74  62  66 S5        29.92R
LACON*         CLOUDY    70  61  74 SE6       29.93R
LINCOLN*       MOSUNNY   73  62  66 S3        29.90R
SPRINGFIELD    SUNNY     76  60  57 SW12G24   29.88R
TAYLORVILLE    SUNNY     72  63  73 SW12      29.88S
$$

ILZ033-039-045-046-055>057-062-063-260000-
EAST-CENTRAL ILLINOIS

CITY           SKY/WX    TMP DP  RH WIND       PRES   REMARKS
CHAMPAIGN      SUNNY     72  60  66 SE6       29.94F
DANVILLE*      MOSUNNY   70  59  68 S9        29.93F
RANTOUL*       SUNNY     73  57  57 SE9       29.95F
MATTOON        SUNNY     72  60  66 S7        29.93R
PARIS*         MOSUNNY   74  63  68 SE6       29.95F
$$

ILZ079-100>102-260000-
SOUTHWEST ILLINOIS

CITY           SKY/WX    TMP DP  RH WIND       PRES   REMARKS
ALTON          SUNNY     77  64  65 S14       29.89F
BELLEVILLE     MOSUNNY   77  63  62 E10       29.90F
CAHOKIA*       MOSUNNY   79  63  57 S13G22    29.90F HX  80
SPARTA*        PTSUNNY   73  61  64 S14G23    29.93F
$$

ILZ064>066-069>071-074>076-080>082-084>086-088>090-092>094-260000-
SOUTH-CENTRAL ILLINOIS

CITY           SKY/WX    TMP DP  RH WIND       PRES   REMARKS
CARBONDALE     CLOUDY    77  62  59 SW16      29.93F
CAIRO*         PTSUNNY   79  63  57 SE7       29.96F HX  80
EFFINGHAM*     MOSUNNY   73  58  60 SW7       29.93R
MARION         PTSUNNY   77  63  61 S12       29.93F
MT. VERNON     CLOUDY    75  63  64 S16G22    29.92R
CENTRALIA*     PTSUNNY   76  60  56 S10G25    29.90S
SALEM*         PTSUNNY   76  65  68 SW10      29.91R
METROPOLIS*    CLOUDY    78  58  49 CALM      29.95S
$$

ILZ067-068-072-073-078-083-087-091-260000-
SOUTHEAST ILLINOIS

CITY           SKY/WX    TMP DP  RH WIND       PRES   REMARKS
LAWRENCEVILLE  CLOUDY    74  60  61 S10       29.91R
FLORA*         CLOUDY    72  62  70 SW12      29.92R
FAIRFIELD*     CLOUDY    75  66  73 S9G16     29.89S
HARRISBURG*    CLOUDY    74  62  66 S9        29.91F
ROBINSON*      CLOUDY    77  62  59 SE5       29.93R
CARMI*         CLOUDY    75  64  69 S10G17    29.88F
$$

ABBREVIATIONS USED IN REMARKS
   TC - TEMPERATURE IN CELSIUS
  WCI - WIND CHILL INDEX
   HX - HEAT INDEX
  VSB - VISIBILITY
$$




USA.gov is the U.S. government's official web portal to all federal, state and local government web resources and services.